This demonstration page uses our WeatherBlox Daily Observations layout. Learn more.

Left ArrowRight Arrow

Hourly Observations for June 24, 2015

Temp ( °F °C ) Dew Point ( °F °C ) Humidity (%) Winds ( mph kmh ) Pressure ( in mb ) Visibility ( mi km ) Precip ( " mm )
12:11 am 00:11 Cloudy with Nearby Thunderstorms 57 13.9 54 12.2 90 90 SE 8 13 30.00 1016 10 16 0.04 1.02
12:23 am 00:23 Mostly Cloudy 57 13.9 54 12.2 90 90 NNW 10 17 30.00 1016 10 16 0.04 1.02
12:53 am 00:53 Clear 59 15 52 11.1 78 78 N 10 17 29.99 1016 10 16 0.04 1.02
1:53 am 01:53 Mostly Cloudy with Nearby Thunderstorms 58 14.4 53 11.7 84 84 ESE 8 13 29.97 1015 10 16 0.03 0.76
2:18 am 02:18 Partly Cloudy 57 14 54 12 88 88 ESE 5 7 30.00 1016 10 16 0.00 0.00
2:53 am 02:53 Cloudy with Light Rain 59 15 52 11.1 78 78 NNW 7 11 29.98 1015 10 16 0.00 0.03
4:53 am 04:53 undefined 56 13.3 52 11.1 87 87 N 7 11 29.99 1016 10 16 0.00 0.00
5:53 am 05:53 Sunny 54 12.2 51 10.6 90 90 S 8 13 30.02 1017 10 16 0.00 0.00
6:53 am 06:53 Sunny 54 12.2 51 10.6 90 90 WSW 6 9 30.04 1017 10 16 0.00 0.00
7:53 am 07:53 Sunny 60 15.6 50 10 70 70 W 5 7 30.05 1018 10 16 0.00 0.00
8:53 am 08:53 Sunny 64 17.8 50 10 60 60 VRB 3 6 30.07 1018 10 16 0.00 0.00
9:53 am 09:53 Sunny 69 20.6 50 10 51 51 VRB 5 7 30.07 1018 10 16 0.00 0.00
10:53 am 10:53 Sunny 72 22.2 46 7.8 40 40 VRB 7 11 30.06 1018 10 16 0.00 0.00
11:53 am 11:53 Sunny 76 24.4 44 6.7 32 32 VRB 7 11 30.05 1018 10 16 0.00 0.00
12:53 pm 12:53 Sunny 79 26.1 44 6.7 29 29 VRB 6 9 30.03 1017 10 16 0.00 0.00
1:53 pm 13:53 Sunny 80 26.7 43 6.1 27 27 VRB 6 9 30.02 1017 10 16 0.00 0.00
2:53 pm 14:53 Sunny 82 27.8 44 6.7 26 26 NNW 9 15 30.00 1016 10 16 0.00 0.00
3:53 pm 15:53 Mostly Sunny 82 27.8 44 6.7 26 26 VRB 3 6 29.99 1016 10 16 0.00 0.00
4:53 pm 16:53 Mostly Sunny 81 27.2 43 6.1 26 26 VRB 3 6 29.98 1015 10 16 0.00 0.00
5:53 pm 17:53 Mostly Cloudy 81 27.2 43 6.1 26 26 ENE 7 11 29.97 1015 10 16 0.00 0.00
6:53 pm 18:53 Mostly Sunny 83 28.3 44 6.7 25 25 VRB 5 7 29.96 1015 10 16 0.00 0.00
7:53 pm 19:53 Sunny 82 27.8 43 6.1 25 25 NE 5 7 29.96 1014 10 16 0.00 0.00
8:53 pm 20:53 Sunny 76 24.4 51 10.6 42 42 ESE 7 11 29.97 1015 10 16 0.00 0.00
9:53 pm 21:53 Clear 67 19.4 52 11.1 59 59 SSE 5 7 29.98 1015 10 16 0.00 0.00
10:53 pm 22:53 Clear 65 18.3 50 10 59 59 SE 5 7 29.98 1015 10 16 0.00 0.00
11:53 pm 23:53 Clear 64 17.8 47 8.3 54 54 ENE 7 11 29.99 1016 10 16 0.00 0.00

Powered by AerisWeather